Weather History for Jordan, MT

Change the Weather History Date:

Wednesday, December 19, 2012

  Actual Average Record
Temperature  
Mean Temperature 16 °F 18 °F  
Max Temperature 31 °F 30 °F 61 °F (2004)
Min Temperature 1 °F 5 °F -27 °F (1989)
Degree Days  
Heating Degree Days 49 47  
Month to date heating degree days 680 854  
Since 1 July heating degree days 2450 2872  
Cooling Degree Days 0 0  
Month to date cooling degree days 0 0  
Year to date cooling degree days 728 421  
Moisture  
Dew Point 9 °F    
Average Humidity 70    
Maximum Humidity 92    
Minimum Humidity 47    
Precipitation  
Precipitation 0.01 in 0.01 in 0.27 in (1960)
Month to date precipitation 0.13 0.15  
Year to date precipitation 7.82 12.53  
Snow  
Snow 0.00 in - - ()
Month to date snowfall 0.0  
Since 1 July snowfall 0.0  
Snow Depth 0.00 in    
Sea Level Pressure  
Sea Level Pressure 30.07 in    
Wind  
Wind Speed 4 mph (WNW)    
Max Wind Speed 17 mph    
Max Gust Speed 22 mph    
T = Trace of Precipitation, MM = Missing Value Source: NWS Daily Summary

Daily Weather History Graph

Daily Weather History Graph

Search for Another Location

Airport:

Trip Planner

Search our weather history database for the weather conditions in past years. The results will help you decide how hot, cold, wet, or windy it might be!

Date:

Astronomy

Dec. 19, 2012 Rise Set
Actual Time 7:51 AM MST 4:19 PM MST
Civil Twilight 7:15 AM MST 4:55 PM MST
Nautical Twilight 6:36 AM MST 5:34 PM MST
Astronomical Twilight 5:58 AM MST 6:11 PM MST
Moon 11:34 AM MST (12/19) No Moon Set
Length of Visible Light 9h 39m
Length of Day
8h 27m
Waxing Crescent, 45% of the Moon is Illuminated
Dec 19
Waxing Crescent
Dec 19
First Quarter
Dec 28
Full
Jan 4
Last Quarter
Jan 11
New

Hourly Weather History & Observations

Time (MST) Temp. Windchill Dew Point Humidity Pressure Visibility Wind Dir Wind Speed Gust Speed Precip Events Conditions
12:48 AM 19.9 °F 9.3 °F 16.0 °F 85% 29.89 in - WNW 9.2 mph - 0.01 in   Unknown
1:48 AM 19.9 °F 11.1 °F 17.1 °F 89% 29.90 in - WNW 6.9 mph - N/A   Unknown
2:48 AM 21.0 °F 11.4 °F 17.1 °F 85% 29.91 in - WNW 8.1 mph - N/A   Unknown
3:48 AM 19.0 °F 11.1 °F 15.1 °F 85% 29.94 in - WNW 5.8 mph - N/A   Unknown
4:48 AM 19.0 °F 12.3 °F 15.1 °F 85% 29.96 in - West 4.6 mph - N/A   Unknown
5:48 AM 15.1 °F 9.4 °F 10.9 °F 84% 29.99 in - West 3.5 mph - N/A   Unknown
6:48 AM 8.1 °F -0.5 °F 5.0 °F 87% 30.04 in - WNW 4.6 mph - N/A   Unknown
7:48 AM 10.9 °F 4.7 °F 8.1 °F 88% 30.06 in - WNW 3.5 mph - N/A   Unknown
8:48 AM 9.0 °F - 6.1 °F 88% 30.08 in - Calm Calm - N/A   Unknown
9:48 AM 15.1 °F - 10.9 °F 84% 30.09 in - Calm Calm - N/A   Unknown
10:48 AM 21.9 °F 14.5 °F 15.1 °F 75% 30.10 in - West 5.8 mph - N/A   Unknown
11:48 AM 28.0 °F 17.5 °F 12.9 °F 53% 30.08 in - WNW 12.7 mph - N/A   Unknown
12:48 PM 30.0 °F 20.5 °F 12.9 °F 49% 30.06 in - West 11.5 mph - N/A   Unknown
1:48 PM 30.0 °F 21.1 °F 12.0 °F 47% 30.07 in - WNW 10.4 mph - N/A   Unknown
2:48 PM 30.0 °F 21.1 °F 12.9 °F 49% 30.06 in - WNW 10.4 mph - N/A   Unknown
3:48 PM 28.0 °F 24.2 °F 12.0 °F 51% 30.09 in - WNW 3.5 mph - N/A   Unknown
4:48 PM 15.1 °F - 9.0 °F 77% 30.12 in - Calm Calm - N/A   Unknown
5:48 PM 12.0 °F - 6.1 °F 77% 30.14 in - Calm Calm - N/A   Unknown
6:48 PM 9.0 °F - 3.9 °F 80% 30.17 in - Calm Calm - N/A   Unknown
7:48 PM 6.1 °F - 3.0 °F 87% 30.17 in - Calm Calm - N/A   Unknown
8:48 PM 3.9 °F - -0.0 °F 84% 30.17 in - Calm Calm - N/A   Unknown
9:48 PM 1.9 °F - -2.0 °F 83% 30.17 in - Calm Calm - N/A   Unknown
10:48 PM 1.0 °F - -2.9 °F 83% 30.17 in - Calm Calm - N/A   Unknown
11:48 PM 1.9 °F - -0.9 °F 88% 30.15 in - Calm Calm - N/A   Unknown